Location: Newark
(27.9675°N, 86.8869°E)
Time: 14:44:35
(UTC+00:00)

deb Explorer IX - Pass Details

Date: 26 October 2019
Orbit: 546 x 1105 km, 38.8° (Epoch: 13 November)

Event Time Altitude Azimuth Distance (km) Brightness Sun altitude
Rises 07:41:11 0° 298° (WNW) 3,021 ? 42.4°
Reaches altitude 10° 07:43:45 10° 311° (NW) 2,194 ? 42.0°
Maximum altitude 07:48:08 27° 9° (N) 1,477 ? 41.4°
Drops below altitude 10° 07:53:07 10° 66° (ENE) 2,523 ? 40.8°
Sets 07:56:17 0° 78° (ENE) 3,569 ? 40.3°
